Regional Weather Roundup
Issued by NWS Albany, NY

Home | Current Version | Previous Version | Text Only | Print | Product List | Glossary On
Versions: 1 2 3 4 5 6 7 8 9 10 11 12 13 14 15 16 17 18 19 20 21 22 23 24 25 26 27 28 29 30 31 32 33 34 35 36 37 38 39 40 41 42 43 44 45 46 47 48 49 50
000
ASUS41 KALY 280110
RWRALY

NEW YORK STATE HOURLY WEATHER ROUNDUP
NATIONAL WEATHER SERVICE ALBANY NY
900 PM EDT WED MAY 27 2015

NOTE: "FAIR" INDICATES FEW OR NO CLOUDS BELOW 12,000 FEET WITH NO
SIGNIFICANT WEATHER AND/OR NO OBSTRUCTIONS TO VISIBILITY.

NYZ032-033-038>043-046>054-057>066-NYZ062>081-280200-
EAST


CITY           SKY/WX    TMP DP  RH WIND       PRES   REMARKS
ALBANY         CLOUDY    70  66  87 S12       30.07R
GLENS FALLS    CLOUDY    68  66  93 S8        30.06R
POUGHKEEPSIE   CLOUDY    70  66  87 SE5       30.11F
MONTGOMERY     CLOUDY    70  68  93 SW5       30.12S
WHITE PLAINS   LGT RAIN  66  64  93 S3        30.14S FOG
ISLIP          MOCLDY    66  60  81 S18G30    30.15S
NEW YORK CITY  LGT RAIN  71  63  75 CALM      30.13S
CENTRAL PARK   LGT RAIN  71  67  87 SW3       30.17R
$$

NYZ005>009-017-018-044>046-055-056-280200-
CENTRAL


CITY           SKY/WX    TMP DP  RH WIND       PRES   REMARKS
FULTON         CLEAR     70  65  84 CALM      29.99R
SYRACUSE       MOCLDY    77  62  59 S6        30.00R
ROME           PTCLDY    75  61  61 SE3       30.03R
ELMIRA         PTCLDY    67  61  81 CALM      30.05R
BINGHAMTON     PTCLDY    70  61  73 S7        30.10R
MONTICELLO     PTCLDY    64  64 100 SW3       30.16R
$$

NYZ026>034-041>043-280200-
NORTH


CITY           SKY/WX    TMP DP  RH WIND       PRES   REMARKS
WATERTOWN      PTCLDY    74  59  59 SW8       29.98R
FORT DRUM      NOT AVBL
MASSENA        CLEAR     75  59  57 SW13      29.94R
SARANAC LAKE   PTCLDY    64  60  87 CALM      30.02R
PLATTSBURGH    CLOUDY    66  63  90 SE3       29.95S
$$

NYZ001>004-010>016-019>021-280200-
WEST


CITY           SKY/WX    TMP DP  RH WIND       PRES   REMARKS
NIAGARA FALLS  LGT RAIN  64  59  83 S15G26    30.01R
BUFFALO        RAIN      64  60  87 SW14G24   30.04R
DUNKIRK        LGT RAIN  63  60  90 S9G22     30.06F
JAMESTOWN      CLOUDY    61  55  82 SW8       30.11F
WELLSVILLE     PTCLDY    71  57  61 SW8       30.11S
ROCHESTER      TSTM      67  62  84 W9        30.03F
PENN YAN       CLEAR     72  58  61 S3        30.04R
$$

             KEY
       WCI = WIND CHILL INDEX
       VSB = VISIBILITY
       HX  = HEAT INDEX
$$



USA.gov is the U.S. government's official web portal to all federal, state and local government web resources and services.